SL-16 DEB, 27690

Orbit data source: Space-Track

SL-16 DEB, 27690 is space debris in SSO originally from a launch on Mon, 10 Dec 2001 UTC launched from the Tyuratam Missile And Space Complex (TTMTR). Debris objects in space refer to the collection of defunct objects orbiting the Earth. Examples of debris include non-operational satellites, rocket bodies, and fragments generated from explosions, collisions, or faulty payload assembly.

Loading next visibility...
Identifier
27690, 2001-056J
Orbit
SSO
Country
Flag of CISCIS
Related business
Manufacturer
Yuzhnoe
Mission
Spacecraft
Bus & Motor
SEP MOTOR COVER, Unknown motor
Mass
~1 kg wet, ~1 kg dry
Launch date (UTC)
2001-12-10 (24 years ago)
Launch vehicle
Unknown
Launch site
Tyuratam Missile And Space Complex (TTMTR)
Object type
Payload
Rocket body
Debris
Shape & HBR
Cone, 0.5 m
Radar Cross Section
0.635 m², Medium (>0.1 m² and < 1m²)

Expand to show TLE details & history
Last TLE update: 9 hours ago

TLE from 9 hours ago
0 SL-16 DEB
1 27690U 01056J   26150.46189909  .00000033  00000-0  15471-3 0  9993
2 27690 100.3777  19.4840 0181589 277.0649 205.5490 13.31097071188121
Epoch: 2026-05-30T11:05Z
TLE epoch observation values (Epoch: 2026-05-30T11:05:08.081Z)
Latitude
56.87543°
Longitude
161.43865°
Altitude
1,275.717 km
Speed
7.164 km/s
True Right ascension
14h 22m 47s
True Declination
56° 43' 43"
Sunlit
Object was in daylight at epoch
Visualization orbit readout
Latitude
Unknown
Longitude
Unknown
Altitude
Unknown
Speed
Unknown
Apparent Right ascension
Unknown
Apparent Declination
Unknown
Sunlit
N/A
Visualization observer readout
Local Sidereal Time
05:27:38
Azimuth
Unknown
Elevation
Unknown
Doppler factor
Unknown
Orbital elements
Apogee altitude
1,276.51 km
Perigee altitude
1,003.468 km
Semi-major axis
7,518.126 km
Eccentricity
0.01816
Inclination
100.3777°
RAAN
19.484°
Arg. of periapsis
277.0649°
True anomaly
204.66962°
Mean anomaly
205.549°
Eccentric anomaly
205.10753°
Mean motion
3.3295 °/min
Orbital period
108.12 mins
BSTAR
0.00015471
Loading maneuver chart data...
Computing Atmospheric mass density...
Loading historical data...
Loading historical data...
Loading historical data...
Loading historical data...
Loading historical data...
Loading historical data...
Loading historical data...

Documentation

Showing up to 5 results
|